www.pogodaiklimat.ru

Погода и климат >> Архив погоды >> Россия >> Ингушетия >> Назрань


ПОГОДА в Назрани

АРХИВ ПОГОДЫ в Назрани

Время (UTC), дата Ветер
(напр.,м/с)
 
Видим.   Явления Облачность Т
(С)
Тd
(С)
f
(%)
Тe
(С)
Тes
(С)
Комфортность P
(гПа)
Po
(гПа)
Тmin
(С)
Tmax
(С)
R
(мм)
R24
(мм)
S
(см)
06 19.06 штиль 0 20 км ясно +24.8 +14.2 52 +27 +44 жарко 1008.7 935.6
09 19.06 В 2 20 км 3/3 1020 м
[Cu hum]
+28.5 +9.6 31 +29 +42 жарко 1007.5 935.2
12 19.06 Ю 2 20 км 4/4 1020 м
[Cu med, cong]
+30.2 +12.9 35 +31 +39 жарко 1006.4 934.6
15 19.06 З 1 20 км 3/3 <50 м
[Cu hum]
+28.8 +14.9 43 +31 +33 жарко 1006.6 934.5 +31.0
18 19.06 В 1 20 км 3/0
[Ac trans]
+23.8 +11.4 46 +25 +25 комфорт 1009.0 935.6
21 19.06 штиль 0 20 км 3/0
[Ac trans]
+21.2 +12.2 56 +23 +23 комфорт 1009.3 935.5
00 20.06 В 1 20 км 1/0
[Ci fib]
+19.0 +11.8 63 +21 +21 комфорт 1009.0 934.3
03 20.06 Ю 1 20 км 4/0
[Ac trans]
+21.6 +11.6 53 +24 +25 комфорт 1008.4 934.6 +17.6
06 20.06 штиль 0 20 км 4/0
[Ac trans]
+25.6 +14.6 51 +28 +41 жарко 1008.2 935.2
09 20.06 ЮВ 2 20 км ясно +28.4 +16.2 48 +32 +51 опасность
солнечного
удара
1007.6 935.0
12 20.06 В 2 20 км 5/0
[]
+30.8 +14.7 38 +33 +42 душно 1006.7 934.8
15 20.06 В 2 20 км 8/0
[As op]
+27.0 +15.6 50 +30 +31 душно 1007.5 934.7 +31.0
18 20.06 ЮВ 2 10 км {дождь} 10/0
[As op]
+23.0 +17.2 70 +28 +28 душно 1009.1 935.2
21 20.06 В 2 10 км 10/0
[As op]
+20.0 +11.9 60 +22 +22 комфорт 1009.0 934.4
00 21.06 ЮВ 2 10 км 10/0
[As op]
+16.7 +8.3 58 +17 +17 тепло 1009.5 934.0
03 21.06 ЮВ 2 10 км слаб. ливневой дождь 10/10 600 м
[Cu med, cong]
+15.0 +9.4 69 +15 +15 прохладно 1012.7 936.6 +15.0 2
06 21.06 В 2 20 км {ливн. осадки} 10/0
[As op]
+20.0 +11.9 60 +22 +25 комфорт 1012.5 937.6
09 21.06 ЮВ 2 20 км 10/0
[As op]
+26.0 +18.3 63 +31 +35 очень
душно
1011.1 937.8
12 21.06 ЮВ 2 10 км слаб. ливневой дождь 10/10 600 м
[Cu med, cong]
+25.0 +19.1 70 +30 +30 душно 1011.7 938.1
15 21.06 В 2 20 км {ливн. осадки} 10/0
[As op]
+24.4 +18.8 71 +29 +29 душно 1011.5 937.8 +27.5 0.0
18 21.06 Ю 2 10 км 10/0
[As op]
+20.8 +15.1 70 +24 +24 комфорт 1013.4 938.7
21 21.06 В 2 10 км 10/0
[As op]
+19.6 +12.9 65 +22 +22 комфорт 1013.8 938.8
00 22.06 Ю 2 10 км 10/0
[As op]
+16.0 +9.3 64 +16 +16 по сезону 1014.2 938.2
03 22.06 В 2 20 км 3/0
[Ci fib]
+18.9 +10.8 59 +20 +22 тепло 1014.1 938.8 +16.0
06 22.06 ЮВ 2 20 км ясно +21.0 +10.1 50 +23 +36 комфорт 1013.3 938.6
09 22.06 Ю 1 20 км ясно +27.0 +15.6 50 +30 +53 опасность
солнечного
удара
1011.4 938.3
12 22.06 штиль 0 20 км ясно +28.2 +13.4 40 +30 +47 жарко 1010.4 937.6
15 22.06 В 1 20 км ясно +27.0 +15.6 50 +30 +32 душно 1010.9 937.8 +30.0
18 22.06 Ю 2 20 км ясно +25.0 +16.6 60 +29 +29 душно 1012.3 938.7
21 22.06 В 2 10 км ясно +20.0 +10.1 53 +22 +22 комфорт 1012.5 937.6
00 23.06 ЮВ 2 10 км ясно +15.5 +4.9 49 +16 +16 по сезону 1013.1 937.0
03 23.06 Ю 2 20 км ясно +17.6 +7.8 53 +18 +20 по сезону 1013.1 937.6 +15.5
06 23.06 В 1 50 км ясно +25.2 +10.6 40 +26 +41 жарко 1012.2 938.6
09 23.06 ЮВ 2 20 км ясно +28.0 +12.9 39 +29 +49 жарко 1011.6 938.7
12 23.06 штиль 0 20 км ясно +30.2 +12.9 35 +31 +48 жарко 1009.5 937.2
15 23.06 В 1 20 км {ливн. осадки} 8/0
[As op]
+25.2 +16.9 60 +29 +30 душно 1010.3 936.9 +32.0 0.2
18 23.06 ЮЗ 1 10 км 8/0
[Ac As]
+21.8 +17.3 76 +26 +26 душно 1012.0 938.0
21 23.06 Ю 1 10 км 8/0
[Ac As]
+20.8 +16.5 76 +25 +25 комфорт 1012.6 938.2
00 24.06 штиль 0 10 км 3/0
[Ci fib]
+19.8 +16.0 79 +22 +22 комфорт 1011.8 937.3
03 24.06 ЮЗ 1 20 км 8/0
[Ac trans]
+20.4 +16.6 79 +25 +26 комфорт 1012.5 938.1 +18.0
06 24.06 З 2 20 км 6/0
[Cs]
+25.6 +17.7 62 +30 +38 душно 1011.8 938.7
09 24.06 З 2 20 км 3/0
[Ac trans]
+27.8 +16.0 49 +31 +47 душно 1011.2 938.6
12 24.06 З 2 20 км 4/0
[Ac trans]
+29.4 +16.1 45 +33 +42 душно 1010.3 938.1
15 24.06 З 2 10 км гроза, ливневой дождь 10/10 600 м
[Cb cap]
+23.0 +16.8 68 -29 -29 очень
холодно
1013.4 939.5 +30.5 0.0
18 24.06 В 1 10 км {гроза} 9/0
[Ac As]
+21.2 +15.7 71 +24 +24 комфорт 1014.3 940.0
21 24.06 штиль 0 20 км 10/0
[Ac trans]
+20.1 +15.9 77 +22 +22 комфорт 1015.3 940.6
00 25.06 штиль 0 10 км ясно +18.2 +14.4 78 +18 +18 тепло 1014.2 939.0
03 25.06 штиль 0 20 км ясно +20.6 +15.2 71 +23 +25 комфорт 1014.8 940.3 +16.5 3
06 25.06 Ю 1 20 км ясно +25.4 +16.7 59 +29 +43 душно 1013.8 940.5
09 25.06 С 1 20 км 3/3 1020 м
[Cu hum]
+28.6 +15.6 45 +31 +48 жарко 1012.7 940.2
12 25.06 С 1 20 км 8/6 1020 м
[Cu med, cong]
+28.2 +17.7 53 +33 +37 очень
душно
1012.3 939.8
15 25.06 С 1 20 км 3/3 1020 м
[Cu hum]
+30.6 +17.3 45 +35 +36 очень
душно
1011.7 939.8 +32.0
18 25.06 штиль 0 20 км 4/0
[Ac trans]
+25.4 +18.3 65 +30 +30 душно 1013.8 940.5
21 25.06 штиль 0 10 км {ливн. осадки} 6/0
[Ac As]
+22.1 +16.5 71 +26 +26 душно 1014.7 940.6
00 26.06 штиль 0 10 км ясно +19.3 +14.1 72 +21 +21 комфорт 1013.9 941.0
03 26.06 ЮЗ 2 20 км 8/0
[Ac As]
+22.6 +13.5 56 +26 +26 жарко 1015.7 941.6 +19.2 0.3

 

Местоположение метеостанции Назрань (Ингушетия, Россия): широта 43.15 долгота 44.85 высота над уровнем моря 665 м.

В архиве по умолчанию представлена погода в Назрани за последнюю неделю. Архивные данные за месяц целиком и за предыдущие месяцы, начиная с января 2011 года, Вы можете получить, выбрав интересующий диапазон дат из раскрывающегося списка и нажав кнопку "Ввод!".


*Определитесь, кто Вы:
робот инопланетянин человек

Внимание! Время в таблицах - всемирное. Для получения местного времени необходимо прибавить поправку, которая равна 3 ч.

Смотрите также архив погоды в соседних городах и на ближайших метеорологических станциях:

Погода в Владикавказе (Северная Осетия, Россия) (19 км)
Погода в Алагире (Северная Осетия, Россия) (50 км)
Погода в Моздоке (Северная Осетия, Россия) (66 км)
Погода в Наурской (Чечня, Россия) (67 км)
Погода в Грозном (Чечня, Россия) (71 км)
Погода в Шатое (Чечня, Россия) (74 км)
Погода на Рокском Перевале (Северная Осетия, Россия) (85 км)
Погода в Наре (Северная Осетия, Россия) (87 км)
Погода в Пасанаури (Грузия) (90 км)
Погода в Прохладный (Кабардино-Балкария, Россия) (93 км)

Пояснения к столбцам:

Ветер - указаны скорость ветра в м/с - средняя за 10 мин, порывы в срок и между сроками (в фигурных скобках) и направление, откуда дует ветер: С - северный, СВ - северо-восточный, В - восточный, ЮВ - юго-восточный, Ю - южный, ЮЗ - юго-западный, З - западный, СЗ - северо-западный.
Видимость - горизонтальная дальность видимости в метрах или километрах. При видимости от 1 до 10 км при отсутствии осадков обычно наблюдается дымка, при ухудшении видимости до 1 км и менее - туман. В сухую погоду видимость может ухудшаться дымом, пылью или мглою.
Явления - указаны атмосферные явления, наблюдавшиеся в срок или в последний час перед сроком; фигурными скобками обозначены явления, наблюдавшиеся между сроками (за 1-3 часа до срока); квадратными скобками обозначены град или гололедные отложения с указанием их диаметра в мм.
Облачность - указаны через наклонную черту общая и нижняя облачность в баллах и высота нижней границы облаков в метрах; квадратными скобками обозначены формы облаков: Ci - перистые, Cs - перисто-слоистые, Cc - перисто-кучевые, Ac - высококучевые, As - высокослоистые, Sc - слоисто-кучевые, Ns - слоисто-дождевые, Cu - кучевые, Cb - кучево-дождевые. Подробнее классификацию облаков см. в Атласе облаков (PDF).
T - Температура воздуха - температура, измеренная на высоте 2 м над землей.
Td - Температура точки росы - температура, при понижении до которой содержащийся в воздухе водяной пар достигнет насыщения.
f - Относительная влажность воздуха - влажноcть воздуха, измеренная на высоте 2 м над землей.
Te - Эффективная температура - температура, которую ощущает одетый по сезону человек в тени. Характеристика душности погоды. При расчете учитывается влияние влажности воздуха и скорости ветра на теплоощущения человека.
Tes - Эффективная температура на солнце - температура, которую ощущает человек, с поправкой на солнечный нагрев. Характеристика знойности погоды. Зависит от высоты солнца над горизонтом, облачности и скорости ветра. Ночью, в пасмурную погоду, а также при ветре 12 м/с и более поправка равна нулю.
P - Атмосферное давление - приведенное к уровню моря атмосферное давление.
Po - Атмосферное давление - измеренное на уровне метеостанции атмосферное давление.
Tmin - Минимальная температура - минимум температуры воздуха на высоте 2 м над землей.
Tmax - Максимальная температура - максимум температуры воздуха на высоте 2 м над землей.
R - Количество осадков - Количество выпавших осадков за период времени, мм. При наведении курсора мыши на число - период времени, за который выпало указанное количество осадков.
R24 - Количество осадков - Количество выпавших осадков за 24 часа, мм.
S - Снежный покров - Высота снежного покрова, см. При наведении курсора мыши на число - состояние снежного покрова и степень покрытия местности в баллах.